PROBA-1 1 26958U 01049B 26093.98685343 .00005357 00000+0 34798-3 0 9993 2 26958 97.9627 99.9359 0055744 15.5951 344.6976 15.07198938332443 CUTE-1 (CO-55) 1 27844U 03031E 26093.50286751 .00000567 00000+0 26456-3 0 9999 2 27844 98.6770 102.9944 0010387 47.9217 312.2844 14.24288225181048 CUBESAT XI-IV (CO-57) 1 27848U 03031J 26093.94602893 .00000464 00000+0 22289-3 0 9996 2 27848 98.6802 103.2044 0010511 63.1709 297.0543 14.23580366180818 APRIZESAT 4 1 35684U 09041D 26093.74200803 .00001570 00000+0 19370-3 0 9999 2 35684 98.1446 167.5759 0042903 201.4239 158.5180 14.83763836900320 APRIZESAT 3 1 35686U 09041F 26093.92794752 .00002583 00000+0 22777-3 0 9992 2 35686 98.1947 243.6492 0061167 312.9965 46.6138 14.95996298905277 PROBA-2 1 36037U 09059B 26093.48045905 .00000450 00000+0 11536-3 0 9994 2 36037 98.2444 277.8691 0013874 147.1451 213.0611 14.54809170870668 APRIZESAT 5 1 37792U 11044E 26093.75559933 .00001881 00000+0 24543-3 0 9992 2 37792 98.2421 24.7126 0051080 241.8300 117.7746 14.80933058787770 APRIZESAT 6 1 37793U 11044F 26093.74755182 .00001652 00000+0 23994-3 0 9991 2 37793 98.2401 2.7186 0042477 325.7380 54.3899 14.76812261786165 PROBA-V 1 39159U 13021A 26093.89803824 .00000141 00000+0 79921-4 0 9993 2 39159 98.3541 76.1930 0004198 7.2967 352.8273 14.23580926670540 APRIZESAT 7 1 39416U 13066A 26093.81919429 .00003366 00000+0 33843-3 0 9993 2 39416 97.7642 48.1496 0037564 97.5593 262.9895 14.91374205670140 APRIZESAT 8 1 39425U 13066K 26093.81371743 .00001941 00000+0 21614-3 0 9994 2 39425 97.8157 42.3592 0046265 168.8272 191.3983 14.87495296668610 BUGSAT-1 (TITA) 1 40014U 14033E 26093.94037862 .00008395 00000+0 45042-3 0 9991 2 40014 98.0411 182.2025 0029718 75.4719 284.9805 15.14847749644598 SAUDISAT 4 1 40016U 14033G 26093.92612497 .00001278 00000+0 17546-3 0 9995 2 40016 97.7465 242.6776 0043841 316.3908 43.3841 14.79437508635099 APRIZESAT 9 1 40018U 14033J 26093.81583432 .00001329 00000+0 20197-3 0 9994 2 40018 97.8933 228.8850 0067568 79.7238 281.1580 14.74129381632607 APRIZESAT 10 1 40019U 14033K 26093.90723557 .00001447 00000+0 23365-3 0 9990 2 40019 97.9525 222.5775 0079642 150.1804 210.3977 14.70805538631336 TECHDEMOSAT-1 (TDS-1) 1 40076U 14037H 26093.94059666 .00016664 00000+0 96943-3 0 9993 2 40076 98.3803 78.8794 0007388 145.6458 214.5249 15.12125253637002 TECHNOSAT 1 42829U 17042E 26093.90311373 .00006761 00000+0 48528-3 0 9995 2 42829 97.4201 254.4480 0017353 353.7458 6.3549 15.04508468475533 FLYING LAPTOP 1 42831U 17042G 26093.91704510 .00007460 00000+0 59084-3 0 9994 2 42831 97.4355 252.4838 0019832 17.0501 343.1386 15.00698754475315 HAWK-A 1 43765U 18099H 26093.70172889 .00013675 00000+0 56274-3 0 9992 2 43765 97.3996 146.9319 0035648 185.0493 175.0390 15.23660293401758 HAWK-B 1 43794U 18099AN 26093.70181357 .00012439 00000+0 54099-3 0 9994 2 43794 97.4044 146.4983 0032225 202.2376 157.7465 15.21923144401707 HAWK-C 1 43799U 18099AT 26093.71099813 .00015893 00000+0 58843-3 0 9993 2 43799 97.3971 147.4983 0041585 186.7389 173.3296 15.26916366402542 SALSAT 1 46495U 20068K 26093.94381268 .00015678 00000+0 56347-3 0 9999 2 46495 97.8863 92.5537 0009436 192.6370 167.4633 15.28700775304012 HAWK-2C 1 47502U 21006CT 26093.60254655 .00012168 00000+0 37471-3 0 9992 2 47502 97.2359 139.4182 0008893 106.6841 253.5379 15.33737206288062 HAWK-2A 1 47505U 21006CW 26093.08374522 .00012343 00000+0 38012-3 0 9990 2 47505 97.2404 139.5434 0008455 110.8836 249.3313 15.33737345287987 HAWK-2B 1 47508U 21006CZ 26093.60280332 .00014088 00000+0 43331-3 0 9994 2 47508 97.2277 138.5082 0009049 107.4701 252.7532 15.33738706288062 HAWK-3B 1 48931U 21059BE 26093.52503024 .00053672 00000+0 57374-3 0 9994 2 48931 97.6711 283.5022 0004993 233.6694 126.4103 15.63726972266164 HAWK-3C 1 48948U 21059BX 26093.52470913 .00055155 00000+0 58946-3 0 9996 2 48948 97.6849 289.0515 0005215 234.5165 125.5606 15.63725451266162 HAWK-3A 1 48957U 21059CG 26093.52459637 .00053468 00000+0 57172-3 0 9991 2 48957 97.6791 286.3179 0005037 234.2691 125.8099 15.63720565266167 HAWK-5C 1 52754U 22057Y 26093.93279389 .00033761 00000+0 63001-3 0 9991 2 52754 97.6499 249.0209 0004303 346.9427 13.1711 15.48713076214845 HAWK-5B 1 52756U 22057AA 26093.93262044 .00031484 00000+0 58783-3 0 9994 2 52756 97.6501 247.3622 0004202 340.6495 19.4594 15.48713029214841 HAWK-5A 1 52757U 22057AB 26093.93242370 .00033305 00000+0 62146-3 0 9997 2 52757 97.6502 248.1961 0004650 343.2800 16.8296 15.48716477214844 HAWK-6B 1 55324U 23011A 26093.93426387 .00010593 00000+0 45858-3 0 9998 2 55324 40.4992 64.9390 0004562 242.9285 117.1059 15.22250508176524 HAWK-6C 1 55326U 23011C 26093.60563828 .00010489 00000+0 45427-3 0 9992 2 55326 40.4988 63.7015 0004373 231.5945 128.4472 15.22244473176482 HAWK-6A 1 55327U 23011D 26093.21202575 .00010723 00000+0 46434-3 0 9999 2 55327 40.4998 67.6120 0004078 231.2202 128.8243 15.22236484176426 HAWK-7A 1 56191U 23054P 26093.66621956 .00010896 00000+0 41900-3 0 9997 2 56191 97.2796 342.9012 0001723 338.1725 21.9440 15.26572447165653 HAWK-7B 1 56193U 23054R 26093.66612346 .00011143 00000+0 42838-3 0 9999 2 56193 97.2824 341.1375 0001515 9.7408 350.3860 15.26577350165651 HAWK-7C 1 56200U 23054Y 26093.66601390 .00010784 00000+0 41471-3 0 9997 2 56200 97.2798 341.9300 0001158 348.8739 11.2474 15.26574333165655